Temp
51 49 49 49 47 47 47 47 48 49 48 48 48 47 46 43 43 42 41 40 39 40
49 50 49 48 47 46 46 51 49 48 47 46 46 46 44 42 41 41 41 40 40 40
48 48 48 47 47 46 46 47 46 46 46 45 45 45 43 41 41 40 40 43 39 40
47 47 46 45 45 45 45 45 46 46 45 44 44 43 42 41 41 40 40 40 40 41
47 46 44 44 45 45 45 45 45 44 44 44 43 43 41 41 42 40 39 40 40 43
45 44 43 43 44 44 43 43 43 43 42 42 43 42 42 41 40 40 40 41 42 42
43 43 43 43 42 42 42 41 41 41 42 42 42 41 41 41 40 41 43 43 45 46
44 43 42 42 42 42 41 42 41 41 41 40 41 44 43 44 44 44 44 45 46 46
43 43 41 41 41 40 40 39 39 39 38 37 42 48 50 49 45 45 44 42 44 45
42 42 41 41 40 39 38 37 36 36 36 36 38 48 50 50 46 44 43 43 43 44
41 41 40 39 38 37 36 35 34 35 36 37 40 48 49 50 46 43 44 43 43 42
41 39 39 38 37 36 34 33 34 37 36 36 39 46 48 47 44 42 42 42 42 42
40 39 38 37 36 35 33 35 37 37 37 40 40 44 46 47 43 41 41 42 43 45
40 38 38 36 34 33 33 33 32 35 38 42 40 42 46 47 44 42 41 41 39 39
MSLP
1018.43 1018.81 1019.14 1019.34 1019.54 1019.64 1019.68 1019.65 1019.59 1019.73 1019.76 1019.75 1019.72 1019.69 1019.70 1019.88 1019.89 1019.88 1019.90 1019.92 1019.89 1019.82
1018.80 1018.96 1019.19 1019.35 1019.53 1019.68 1019.76 1019.63 1019.53 1019.66 1019.79 1019.69 1019.65 1019.58 1019.50 1019.52 1019.55 1019.36 1019.25 1019.19 1019.11 1019.08
1019.07 1019.19 1019.41 1019.63 1019.75 1019.75 1019.77 1019.71 1019.72 1019.65 1019.60 1019.55 1019.34 1019.28 1019.36 1019.21 1019.01 1018.83 1018.61 1018.49 1018.41 1018.31
1019.30 1019.38 1019.49 1019.63 1019.69 1019.65 1019.59 1019.54 1019.54 1019.57 1019.52 1019.41 1019.23 1018.99 1018.84 1018.67 1018.47 1018.30 1018.06 1017.90 1017.76 1017.46
1019.29 1019.43 1019.57 1019.60 1019.52 1019.42 1019.36 1019.29 1019.28 1019.29 1019.26 1019.12 1018.91 1018.59 1018.42 1018.15 1017.84 1017.60 1017.49 1017.32 1017.01 1016.55
1019.27 1019.34 1019.48 1019.50 1019.42 1019.45 1019.44 1019.40 1019.19 1019.10 1018.91 1018.73 1018.42 1018.10 1017.80 1017.49 1017.17 1016.99 1016.70 1016.43 1015.96 1015.58
1019.49 1019.56 1019.50 1019.49 1019.38 1019.38 1019.26 1019.14 1018.97 1018.76 1018.57 1018.27 1017.89 1017.55 1017.27 1016.88 1016.49 1016.16 1015.74 1015.25 1014.82 1014.46
1019.40 1019.39 1019.30 1019.31 1019.36 1019.21 1019.07 1018.88 1018.64 1018.38 1018.04 1017.72 1017.47 1016.98 1016.48 1015.96 1015.46 1015.03 1014.53 1014.20 1013.86 1013.54
1019.28 1019.32 1019.33 1019.20 1019.12 1018.89 1018.68 1018.46 1018.18 1017.86 1017.57 1017.26 1016.85 1016.21 1015.52 1014.82 1014.50 1014.11 1013.66 1013.36 1013.02 1012.56
1019.28 1019.28 1019.21 1019.02 1018.92 1018.62 1018.30 1018.01 1017.79 1017.48 1017.12 1016.69 1016.06 1015.42 1014.59 1013.97 1013.46 1013.23 1012.92 1012.66 1012.17 1011.73
1018.95 1018.95 1018.73 1018.76 1018.50 1018.19 1017.94 1017.70 1017.46 1017.13 1016.55 1015.95 1015.33 1014.62 1013.90 1013.17 1012.70 1012.51 1012.27 1011.96 1011.54 1011.18
1018.73 1018.77 1018.54 1018.31 1018.06 1017.82 1017.62 1017.49 1017.13 1016.54 1015.93 1015.42 1014.68 1014.02 1013.27 1012.62 1012.19 1011.95 1011.52 1011.23 1010.83 1010.47
1018.40 1018.35 1018.14 1017.85 1017.75 1017.51 1017.44 1017.11 1016.59 1016.02 1015.47 1014.89 1014.15 1013.53 1012.80 1012.01 1011.56 1011.14 1010.76 1010.42 1009.97 1009.69
1018.14 1017.98 1017.62 1017.51 1017.46 1017.41 1017.13 1016.68 1016.31 1015.65 1014.90 1014.19 1013.70 1012.89 1012.13 1011.41 1010.84 1010.46 1009.96 1009.60 1009.31 1009.03
Wind_Speed
4 3 2 2 2 2 2 2 2 3 3 4 4 5 5 3 4 5 5 8 6 5
5 5 3 2 2 0 0 2 3 4 5 5 5 5 5 4 6 5 6 7 7 6
4 4 4 3 3 3 2 2 3 4 5 6 6 6 6 5 6 6 5 6 7 7
3 4 4 3 2 1 1 2 3 4 5 6 6 6 6 7 7 7 7 6 7 9
3 3 2 1 2 2 3 3 4 5 6 6 6 7 7 8 9 7 6 7 7 9
2 2 1 3 4 4 4 5 6 6 6 6 7 7 6 7 7 7 8 9 10 11
1 2 3 4 4 4 4 5 6 6 7 7 6 5 7 7 8 10 12 12 12 12
3 3 3 3 4 5 5 6 6 6 6 6 5 6 9 11 12 11 12 11 13 12
3 3 3 4 5 5 6 7 7 7 7 7 6 18 24 19 11 13 12 11 13 14
4 3 5 5 6 7 7 6 7 7 7 8 9 21 24 23 12 10 10 11 10 11
4 5 5 6 6 6 4 6 6 7 8 9 9 21 23 24 11 9 12 9 12 10
4 5 6 6 7 6 4 4 5 8 9 9 10 20 23 20 10 11 11 9 11 7
5 5 6 6 6 3 3 6 6 9 8 13 12 19 22 19 9 9 8 11 9 15
5 6 6 4 2 3 6 6 6 8 9 12 12 13 22 23 10 9 9 7 7 8
Wind_Direction
76 94 108 124 146 168 192 229 251 260 252 256 267 274 272 258 257 251 245 250 236 238
80 84 95 104 101 164 259 284 344 331 317 313 304 296 289 271 270 260 251 249 249 244
103 90 79 52 33 23 358 5 342 331 325 316 307 300 291 281 272 265 259 258 247 250
78 90 94 103 146 183 272 326 321 305 298 293 291 288 284 271 266 257 261 263 257 260
80 58 38 323 307 312 308 309 299 299 296 289 282 277 269 274 280 261 259 262 257 265
26 358 301 298 299 313 313 307 311 305 295 287 279 278 271 265 262 255 254 260 263 267
297 269 296 307 313 310 315 307 300 290 279 281 280 286 285 270 266 264 265 259 255 266
296 303 303 306 310 302 293 286 280 280 275 274 273 280 286 281 272 270 278 271 272 267
298 305 320 314 304 299 291 286 281 282 281 272 269 289 302 299 291 283 280 283 282 273
305 305 306 297 293 287 285 276 285 282 277 267 268 289 300 302 295 300 286 288 280 281
271 287 291 292 289 285 281 294 292 286 275 275 280 296 303 300 304 298 290 283 285 275
264 280 287 293 293 298 295 303 281 283 285 282 284 299 305 305 300 294 293 280 275 262
266 276 294 291 302 276 287 279 287 294 288 284 297 300 304 304 299 292 286 293 270 280
288 296 290 303 286 290 297 292 290 294 290 302 291 292 305 304 304 293 290 280 276 268